TimePDT,TemperatureF,Dew PointF,Humidity,Sea Level PressureIn,VisibilityMPH,Wind Direction,Wind SpeedMPH,Gust SpeedMPH,PrecipitationIn,Events,Conditions,WindDirDegrees,DateUTC
12:53 AM,62.1,46.9,58,29.81,10.0,WNW,4.6,-,N/A,,Clear,300,2013-07-08 07:53:00
1:53 AM,64.0,46.9,54,29.81,10.0,NNW,4.6,-,N/A,,Partly Cloudy,330,2013-07-08 08:53:00
2:53 AM,66.0,46.0,48,29.80,10.0,NNE,9.2,-,N/A,,Partly Cloudy,20,2013-07-08 09:53:00
3:53 AM,63.0,46.0,54,29.81,10.0,North,5.8,-,N/A,,Partly Cloudy,10,2013-07-08 10:53:00
4:53 AM,64.0,46.0,52,29.81,10.0,NNE,6.9,-,N/A,,Mostly Cloudy,20,2013-07-08 11:53:00
5:53 AM,64.0,46.0,52,29.84,10.0,NNE,4.6,-,N/A,,Mostly Cloudy,20,2013-07-08 12:53:00
6:53 AM,66.9,46.9,49,29.86,10.0,NNE,4.6,-,N/A,,Scattered Clouds,30,2013-07-08 13:53:00
7:53 AM,69.1,46.9,45,29.87,10.0,NNE,9.2,-,N/A,,Scattered Clouds,30,2013-07-08 14:53:00
8:53 AM,69.1,48.9,49,29.89,10.0,East,5.8,-,N/A,,Scattered Clouds,80,2013-07-08 15:53:00
9:53 AM,69.1,50.0,51,29.92,10.0,SSE,5.8,-,N/A,,Mostly Cloudy,150,2013-07-08 16:53:00
10:53 AM,73.0,48.0,41,29.93,10.0,SE,6.9,-,N/A,,Scattered Clouds,130,2013-07-08 17:53:00
11:53 AM,77.0,48.0,36,29.94,10.0,Calm,Calm,-,N/A,,Scattered Clouds,0,2013-07-08 18:53:00
12:53 PM,78.1,44.1,30,29.96,10.0,SSE,6.9,-,N/A,,Scattered Clouds,160,2013-07-08 19:53:00
1:53 PM,81.0,45.0,28,29.94,10.0,SW,13.8,20.7,N/A,,Scattered Clouds,220,2013-07-08 20:53:00
2:53 PM,81.0,45.0,28,29.94,10.0,WSW,9.2,17.3,N/A,,Mostly Cloudy,250,2013-07-08 21:53:00
3:53 PM,81.0,44.1,27,29.95,10.0,West,13.8,24.2,N/A,,Mostly Cloudy,280,2013-07-08 22:53:00
4:53 PM,82.0,43.0,25,29.96,10.0,WNW,10.4,18.4,N/A,,Scattered Clouds,300,2013-07-08 23:53:00
5:21 PM,80.6,46.4,30,30.01,10.0,North,18.4,-,N/A,,Scattered Clouds,10,2013-07-09 00:21:00
5:53 PM,79.0,42.1,27,29.97,10.0,North,15.0,-,N/A,,Scattered Clouds,10,2013-07-09 00:53:00
6:53 PM,78.1,44.1,30,29.98,10.0,NNE,9.2,-,N/A,,Scattered Clouds,20,2013-07-09 01:53:00
7:53 PM,77.0,45.0,32,30.00,10.0,NE,6.9,-,N/A,,Scattered Clouds,40,2013-07-09 02:53:00
8:53 PM,73.4,46.4,38,30.01,10.0,NNE,5.8,-,N/A,,Scattered Clouds,30,2013-07-09 03:53:00
9:53 PM,73.4,46.4,38,30.03,10.0,Calm,Calm,-,N/A,,Scattered Clouds,0,2013-07-09 04:53:00
10:53 PM,72.0,46.9,41,30.04,10.0,ESE,3.5,-,N/A,,Partly Cloudy,120,2013-07-09 05:53:00
11:53 PM,66.9,46.0,47,30.05,10.0,Calm,Calm,-,N/A,,Clear,0,2013-07-09 06:53:00